Time,TemperatureF,DewpointF,PressureIn,WindDirection,WindDirectionDegrees,WindSpeedMPH,WindSpeedGustMPH,Humidity,HourlyPrecipIn,Conditions,Clouds,dailyrainin,SolarRadiationWatts/m^2,SoftwareType,DateUTC
2013-02-03 00:00:00,22.3,20.3,30.02,West,280,1.0,3.0,92,0.00,-SN,,0.00,0.0,WeatherDisplay:10.37,2013-02-03 05:00:00,
2013-02-03 00:01:00,22.3,20.3,30.02,West,279,1.1,3.5,92,0.00,-SN,,0.00,0.0,WeatherDisplay:10.37,2013-02-03 05:01:00,
2013-02-03 00:04:00,22.3,20.3,30.02,West,279,1.5,2.3,92,0.00,-SN,,0.00,0.0,WeatherDisplay:10.37,2013-02-03 05:04:00,
2013-02-03 00:09:00,22.3,20.3,30.02,WNW,285,1.2,3.5,92,0.00,-SN,,0.00,0.0,WeatherDisplay:10.37,2013-02-03 05:09:00,
2013-02-03 00:14:00,22.2,20.5,30.02,WNW,285,1.5,2.3,93,0.00,-SN,,0.00,0.0,WeatherDisplay:10.37,2013-02-03 05:14:00,
2013-02-03 00:19:00,22.2,20.5,30.02,West,279,0.0,1.1,93,0.00,-SN,,0.00,0.0,WeatherDisplay:10.37,2013-02-03 05:19:00,
2013-02-03 00:24:00,22.2,20.5,30.02,WNW,282,1.1,3.5,93,0.00,-SN,,0.00,0.0,WeatherDisplay:10.37,2013-02-03 05:24:00,
2013-02-03 00:29:00,22.2,20.5,30.02,West,280,0.9,3.5,93,0.01,-SN,,0.01,0.0,WeatherDisplay:10.37,2013-02-03 05:29:00,
2013-02-03 00:34:00,22.2,20.5,30.01,WNW,282,1.4,2.0,93,0.01,-SN,,0.01,0.0,WeatherDisplay:10.37,2013-02-03 05:34:00,
2013-02-03 00:39:00,22.2,20.5,30.01,WNW,283,1.4,3.5,93,0.01,-SN,,0.01,0.0,WeatherDisplay:10.37,2013-02-03 05:39:00,
2013-02-03 00:44:00,22.2,20.2,30.01,WNW,286,0.4,1.1,92,0.01,-SN,,0.01,0.0,WeatherDisplay:10.37,2013-02-03 05:44:00,
2013-02-03 00:49:00,22.1,20.1,30.01,WNW,286,0.7,1.1,92,0.01,-SN,,0.01,0.0,WeatherDisplay:10.37,2013-02-03 05:49:00,
2013-02-03 00:54:00,22.1,20.1,30.01,WNW,286,1.0,2.3,92,0.01,-SN,,0.01,0.0,WeatherDisplay:10.37,2013-02-03 05:54:00,
2013-02-03 00:59:00,22.1,20.1,30.01,WNW,286,1.0,2.3,92,0.01,-SN,,0.01,0.0,WeatherDisplay:10.37,2013-02-03 05:59:00,
2013-02-03 01:04:00,22.0,20.0,30.01,WNW,286,0.0,0.0,92,0.01,-SN,,0.01,0.0,WeatherDisplay:10.37,2013-02-03 06:04:00,
2013-02-03 01:09:00,22.0,20.0,30.01,WNW,286,1.3,2.3,92,0.01,-SN,,0.01,0.0,WeatherDisplay:10.37,2013-02-03 06:09:00,
2013-02-03 01:14:00,22.0,20.0,30.00,WNW,286,0.5,1.1,92,0.01,-SN,,0.01,0.0,WeatherDisplay:10.37,2013-02-03 06:14:00,
2013-02-03 01:19:00,21.9,19.9,30.00,WNW,286,0.8,1.1,92,0.01,-SN,,0.01,0.0,WeatherDisplay:10.37,2013-02-03 06:19:00,
2013-02-03 01:24:00,21.9,19.9,30.00,WNW,286,0.2,1.1,92,0.01,-SN,,0.01,0.0,WeatherDisplay:10.37,2013-02-03 06:24:00,
2013-02-03 01:29:00,21.8,19.8,30.00,WNW,286,0.2,0.0,92,0.00,-SN,,0.01,0.0,WeatherDisplay:10.37,2013-02-03 06:29:00,
2013-02-03 01:34:00,21.8,19.8,30.00,WNW,286,0.0,1.1,92,0.00,-SN,,0.01,0.0,WeatherDisplay:10.37,2013-02-03 06:34:00,
2013-02-03 01:39:00,21.8,19.8,30.00,West,271,1.8,3.5,92,0.00,-SN,,0.01,0.0,WeatherDisplay:10.37,2013-02-03 06:39:00,
2013-02-03 01:44:00,21.7,19.7,30.00,West,271,1.1,2.3,92,0.00,-SN,,0.01,0.0,WeatherDisplay:10.37,2013-02-03 06:44:00,
2013-02-03 01:49:00,21.7,19.7,30.00,West,262,0.9,3.5,92,0.00,-SN,,0.01,0.0,WeatherDisplay:10.37,2013-02-03 06:49:00,
2013-02-03 01:54:00,21.7,19.7,30.00,WSW,255,2.4,3.5,92,0.00,-SN,,0.01,0.0,WeatherDisplay:10.37,2013-02-03 06:54:00,
2013-02-03 01:59:00,21.7,19.7,30.00,WSW,250,1.4,3.5,92,0.00,-SN,,0.01,0.0,WeatherDisplay:10.37,2013-02-03 06:59:00,
2013-02-03 02:04:00,21.7,19.7,30.00,West,266,2.4,3.5,92,0.00,-SN,,0.01,0.0,WeatherDisplay:10.37,2013-02-03 07:04:00,
2013-02-03 02:09:00,21.7,19.7,30.00,WSW,252,2.2,3.5,92,0.00,-SN,,0.01,0.0,WeatherDisplay:10.37,2013-02-03 07:09:00,
2013-02-03 02:14:00,21.6,19.6,30.00,WSW,244,3.1,4.0,92,0.00,-SN,,0.01,0.0,WeatherDisplay:10.37,2013-02-03 07:14:00,
2013-02-03 02:19:00,21.6,19.6,29.99,WSW,249,0.5,2.3,92,0.00,-SN,,0.01,0.0,WeatherDisplay:10.37,2013-02-03 07:19:00,
2013-02-03 02:24:00,21.6,19.6,29.99,SW,236,2.1,4.0,92,0.00,-SN,,0.01,0.0,WeatherDisplay:10.37,2013-02-03 07:24:00,
2013-02-03 02:29:00,21.6,19.6,29.99,SW,236,2.3,3.5,92,0.00,-SN,,0.01,0.0,WeatherDisplay:10.37,2013-02-03 07:29:00,
2013-02-03 02:34:00,21.6,19.6,29.99,SW,234,2.0,3.5,92,0.00,-SN,,0.01,0.0,WeatherDisplay:10.37,2013-02-03 07:34:00,
2013-02-03 02:39:00,21.5,19.5,29.99,WSW,246,2.7,4.0,92,0.00,-SN,,0.01,0.0,WeatherDisplay:10.37,2013-02-03 07:39:00,
2013-02-03 02:44:00,21.5,19.5,29.99,WSW,242,1.8,2.3,92,0.00,-SN,,0.01,0.0,WeatherDisplay:10.37,2013-02-03 07:44:00,
2013-02-03 02:49:00,21.5,19.5,29.99,WSW,240,1.8,5.0,92,0.00,-SN,,0.01,0.0,WeatherDisplay:10.37,2013-02-03 07:49:00,
2013-02-03 02:54:00,21.5,19.5,29.99,SW,230,1.3,3.5,92,0.00,-SN,,0.01,0.0,WeatherDisplay:10.37,2013-02-03 07:54:00,
2013-02-03 02:59:00,21.5,19.5,29.98,WSW,238,2.0,3.0,92,0.00,-SN,,0.01,0.0,WeatherDisplay:10.37,2013-02-03 07:59:00,
2013-02-03 03:04:00,21.5,19.5,29.99,WSW,242,2.3,4.6,92,0.00,-SN,,0.01,0.0,WeatherDisplay:10.37,2013-02-03 08:04:00,
2013-02-03 03:09:00,21.5,19.5,29.98,WSW,251,2.1,3.5,92,0.00,-SN,,0.01,0.0,WeatherDisplay:10.37,2013-02-03 08:09:00,
2013-02-03 03:14:00,21.5,19.5,29.98,WSW,240,4.6,7.0,92,0.00,-SN,,0.01,0.0,WeatherDisplay:10.37,2013-02-03 08:14:00,
2013-02-03 03:19:00,21.5,19.5,29.98,SW,235,3.0,4.0,92,0.00,-SN,,0.01,0.0,WeatherDisplay:10.37,2013-02-03 08:19:00,
2013-02-03 03:24:00,21.5,19.5,29.98,SW,236,3.4,6.9,92,0.00,-SN,,0.01,0.0,WeatherDisplay:10.37,2013-02-03 08:24:00,
2013-02-03 03:29:00,21.4,19.4,29.98,WSW,255,5.2,5.2,92,0.00,-SN,,0.01,0.0,WeatherDisplay:10.37,2013-02-03 08:29:00,
2013-02-03 03:34:00,21.4,19.4,29.97,West,265,0.7,3.5,92,0.00,-SN,,0.01,0.0,WeatherDisplay:10.37,2013-02-03 08:34:00,
2013-02-03 03:39:00,21.4,19.4,29.97,WSW,254,3.6,9.2,92,0.00,-SN,,0.01,0.0,WeatherDisplay:10.37,2013-02-03 08:39:00,
2013-02-03 03:44:00,21.4,19.4,29.97,WNW,300,4.5,9.2,92,0.00,-SN,,0.01,0.0,WeatherDisplay:10.37,2013-02-03 08:44:00,
2013-02-03 03:49:00,21.4,19.4,29.97,West,277,6.1,8.0,92,0.00,-SN,,0.01,0.0,WeatherDisplay:10.37,2013-02-03 08:49:00,
2013-02-03 03:54:00,21.3,19.3,29.96,WNW,300,4.7,10.4,92,0.00,-SN,,0.01,0.0,WeatherDisplay:10.37,2013-02-03 08:54:00,
2013-02-03 03:59:00,21.2,19.2,29.96,WNW,290,6.8,7.0,92,0.00,-SN,,0.01,0.0,WeatherDisplay:10.37,2013-02-03 08:59:00,
2013-02-03 04:04:00,21.1,19.1,29.96,NW,317,5.3,8.1,92,0.00,-SN,,0.01,0.0,WeatherDisplay:10.37,2013-02-03 09:04:00,
2013-02-03 04:09:00,20.9,18.9,29.96,WSW,250,5.3,9.2,92,0.00,-SN,,0.01,0.0,WeatherDisplay:10.37,2013-02-03 09:09:00,
2013-02-03 04:14:00,20.5,18.3,29.96,WNW,285,7.3,10.4,91,0.00,-SN,,0.01,0.0,WeatherDisplay:10.37,2013-02-03 09:14:00,
2013-02-03 04:19:00,20.0,17.8,29.96,WNW,299,7.3,11.5,91,0.00,-SN,,0.01,0.0,WeatherDisplay:10.37,2013-02-03 09:19:00,
2013-02-03 04:24:00,19.5,17.0,29.96,WNW,302,6.3,9.0,90,0.00,-SN,,0.01,0.0,WeatherDisplay:10.37,2013-02-03 09:24:00,
2013-02-03 04:29:00,19.1,16.7,29.96,NW,318,5.4,6.9,90,0.00,-SN,,0.01,0.0,WeatherDisplay:10.37,2013-02-03 09:29:00,
2013-02-03 04:34:00,18.9,16.7,29.96,NW,304,4.8,8.1,91,0.00,-SN,,0.01,0.0,WeatherDisplay:10.37,2013-02-03 09:34:00,
2013-02-03 04:39:00,18.6,16.4,29.97,WNW,301,3.4,3.5,91,0.00,-SN,,0.01,0.0,WeatherDisplay:10.37,2013-02-03 09:39:00,
2013-02-03 04:44:00,18.6,16.4,29.96,NW,325,5.5,6.9,91,0.00,-SN,,0.01,0.0,WeatherDisplay:10.37,2013-02-03 09:44:00,
2013-02-03 04:49:00,18.4,16.2,29.96,NW,306,2.1,3.5,91,0.00,-SN,,0.01,0.0,WeatherDisplay:10.37,2013-02-03 09:49:00,
2013-02-03 04:54:00,18.3,16.1,29.96,NW,304,1.8,5.0,91,0.00,-SN,,0.01,0.0,WeatherDisplay:10.37,2013-02-03 09:54:00,
2013-02-03 04:59:00,18.2,16.0,29.96,West,273,4.2,5.8,91,0.00,-SN,,0.01,0.0,WeatherDisplay:10.37,2013-02-03 09:59:00,
2013-02-03 05:04:00,18.1,15.9,29.97,WNW,289,4.3,7.0,91,0.00,-SN,,0.01,0.0,WeatherDisplay:10.37,2013-02-03 10:04:00,
2013-02-03 05:09:00,18.0,15.8,29.97,West,280,2.3,3.5,91,0.00,-SN,,0.01,0.0,WeatherDisplay:10.37,2013-02-03 10:09:00,
2013-02-03 05:14:00,17.9,15.7,29.97,West,272,3.3,4.6,91,0.00,-SN,,0.01,0.0,WeatherDisplay:10.37,2013-02-03 10:14:00,
2013-02-03 05:19:00,17.8,15.6,29.96,WNW,286,3.8,4.0,91,0.00,-SN,,0.01,0.0,WeatherDisplay:10.37,2013-02-03 10:19:00,
2013-02-03 05:24:00,17.7,15.5,29.96,WNW,288,2.1,3.5,91,0.00,-SN,,0.01,0.0,WeatherDisplay:10.37,2013-02-03 10:24:00,
2013-02-03 05:29:00,17.7,15.5,29.96,WNW,286,1.2,2.3,91,0.00,-SN,,0.01,0.0,WeatherDisplay:10.37,2013-02-03 10:29:00,
2013-02-03 05:34:00,17.6,15.4,29.96,West,271,1.3,2.3,91,0.00,-SN,,0.01,0.0,WeatherDisplay:10.37,2013-02-03 10:34:00,
2013-02-03 05:39:00,17.6,15.4,29.96,West,271,0.1,1.1,91,0.00,-SN,,0.01,0.0,WeatherDisplay:10.37,2013-02-03 10:39:00,
2013-02-03 05:44:00,17.5,15.3,29.96,WSW,253,2.2,3.5,91,0.00,-SN,,0.01,0.0,WeatherDisplay:10.37,2013-02-03 10:44:00,
2013-02-03 05:49:00,17.4,15.2,29.95,West,265,1.7,3.5,91,0.00,-SN,,0.01,0.0,WeatherDisplay:10.37,2013-02-03 10:49:00,
2013-02-03 05:54:00,17.3,15.1,29.95,West,267,0.6,2.3,91,0.00,-SN,,0.01,0.0,WeatherDisplay:10.37,2013-02-03 10:54:00,
2013-02-03 05:59:00,17.2,15.0,29.95,West,267,1.3,2.3,91,0.00,-SN,,0.01,0.0,WeatherDisplay:10.37,2013-02-03 10:59:00,
2013-02-03 06:04:00,17.1,14.9,29.95,West,267,0.8,2.3,91,0.00,OVC,,0.01,0.0,WeatherDisplay:10.37,2013-02-03 11:04:00,
2013-02-03 06:09:00,17.1,14.9,29.95,West,267,0.6,1.1,91,0.00,OVC,,0.01,0.0,WeatherDisplay:10.37,2013-02-03 11:09:00,
2013-02-03 06:14:00,17.0,14.8,29.95,West,267,0.9,2.3,91,0.00,OVC,,0.01,0.0,WeatherDisplay:10.37,2013-02-03 11:14:00,
2013-02-03 06:19:00,17.0,14.8,29.94,West,267,0.0,0.0,91,0.00,OVC,,0.01,0.0,WeatherDisplay:10.37,2013-02-03 11:19:00,
2013-02-03 06:24:00,16.9,14.7,29.94,West,267,0.0,0.0,91,0.00,OVC,,0.01,0.0,WeatherDisplay:10.37,2013-02-03 11:24:00,
2013-02-03 06:29:00,16.8,14.6,29.94,West,267,0.0,0.0,91,0.00,OVC,,0.01,0.0,WeatherDisplay:10.37,2013-02-03 11:29:00,
2013-02-03 06:34:00,16.7,14.3,29.94,West,267,0.1,1.0,90,0.00,OVC,,0.01,0.0,WeatherDisplay:10.37,2013-02-03 11:34:00,
2013-02-03 06:39:00,16.6,14.2,29.94,West,267,1.7,2.3,90,0.00,OVC,,0.01,0.0,WeatherDisplay:10.37,2013-02-03 11:39:00,
2013-02-03 06:44:00,16.5,14.1,29.94,WSW,254,1.6,3.5,90,0.00,OVC,,0.01,0.0,WeatherDisplay:10.37,2013-02-03 11:44:00,
2013-02-03 06:49:00,16.4,14.0,29.94,WSW,254,0.1,0.0,90,0.00,OVC,,0.01,0.0,WeatherDisplay:10.37,2013-02-03 11:49:00,
2013-02-03 06:54:00,16.4,14.0,29.94,West,273,0.2,1.1,90,0.00,OVC,,0.01,0.0,WeatherDisplay:10.37,2013-02-03 11:54:00,
2013-02-03 06:59:00,16.3,13.9,29.94,West,273,0.8,2.3,90,0.00,OVC,,0.01,0.0,WeatherDisplay:10.37,2013-02-03 11:59:00,
2013-02-03 07:04:00,16.2,13.8,29.94,West,279,1.7,3.5,90,0.00,OVC,,0.01,0.0,WeatherDisplay:10.37,2013-02-03 12:04:00,
2013-02-03 07:09:00,16.2,13.8,29.95,WNW,296,1.2,2.3,90,0.00,OVC,,0.01,0.0,WeatherDisplay:10.37,2013-02-03 12:09:00,
2013-02-03 07:14:00,16.2,14.0,29.95,NW,309,1.7,4.0,91,0.00,OVC,,0.01,0.0,WeatherDisplay:10.37,2013-02-03 12:14:00,
2013-02-03 07:19:00,16.3,14.1,29.94,WNW,294,3.1,4.6,91,0.00,OVC,,0.01,0.0,WeatherDisplay:10.37,2013-02-03 12:19:00,
2013-02-03 07:24:00,16.4,14.5,29.95,NW,306,3.0,3.5,92,0.00,OVC,,0.01,0.0,WeatherDisplay:10.37,2013-02-03 12:24:00,
2013-02-03 07:29:00,16.4,14.5,29.95,WNW,285,2.2,3.5,92,0.00,OVC,,0.01,0.0,WeatherDisplay:10.37,2013-02-03 12:29:00,
2013-02-03 07:34:00,16.5,14.6,29.95,WNW,302,3.9,4.6,92,0.00,OVC,,0.01,0.0,WeatherDisplay:10.37,2013-02-03 12:34:00,
2013-02-03 07:39:00,16.6,14.7,29.95,NW,317,6.0,6.0,92,0.00,OVC,,0.01,0.0,WeatherDisplay:10.37,2013-02-03 12:39:00,
2013-02-03 07:44:00,16.6,14.7,29.95,West,281,5.7,6.9,92,0.00,OVC,,0.01,0.0,WeatherDisplay:10.37,2013-02-03 12:44:00,
2013-02-03 07:49:00,16.6,14.7,29.95,NNW,335,5.5,8.1,92,0.00,OVC,,0.01,0.0,WeatherDisplay:10.37,2013-02-03 12:49:00,
2013-02-03 07:54:00,16.6,14.7,29.96,WNW,303,6.3,8.1,92,0.00,OVC,,0.01,0.0,WeatherDisplay:10.37,2013-02-03 12:54:00,
2013-02-03 07:59:00,16.5,14.3,29.96,WNW,303,4.4,9.0,91,0.00,OVC,,0.01,0.0,WeatherDisplay:10.37,2013-02-03 12:59:00,
2013-02-03 08:04:00,16.5,14.3,29.96,WNW,296,5.2,6.9,91,0.00,-SN,,0.01,0.0,WeatherDisplay:10.37,2013-02-03 13:04:00,
2013-02-03 08:09:00,16.5,14.3,29.96,West,279,3.9,8.1,91,0.00,-SN,,0.01,0.0,WeatherDisplay:10.37,2013-02-03 13:09:00,
2013-02-03 08:14:00,16.5,14.3,29.96,NW,304,4.2,6.9,91,0.00,-SN,,0.01,5.0,WeatherDisplay:10.37,2013-02-03 13:14:00,
2013-02-03 08:19:00,16.6,14.4,29.96,NW,306,3.0,3.5,91,0.00,-SN,,0.01,12.0,WeatherDisplay:10.37,2013-02-03 13:19:00,
2013-02-03 08:24:00,16.6,14.7,29.96,WNW,292,3.3,5.8,92,0.00,-SN,,0.01,14.0,WeatherDisplay:10.37,2013-02-03 13:24:00,
2013-02-03 08:29:00,16.7,14.8,29.97,WNW,294,3.8,5.8,92,0.00,-SN,,0.01,18.0,WeatherDisplay:10.37,2013-02-03 13:29:00,
2013-02-03 08:34:00,16.8,14.9,29.96,West,273,2.2,3.5,92,0.00,-SN,,0.01,18.0,WeatherDisplay:10.37,2013-02-03 13:34:00,
2013-02-03 08:39:00,16.8,14.6,29.96,WNW,287,3.7,5.8,91,0.00,-SN,,0.01,21.0,WeatherDisplay:10.37,2013-02-03 13:39:00,
2013-02-03 08:44:00,16.9,14.7,29.96,West,281,4.7,5.8,91,0.00,-SN,,0.01,21.0,WeatherDisplay:10.37,2013-02-03 13:44:00,
2013-02-03 08:49:00,17.0,14.8,29.96,West,279,2.9,4.0,91,0.00,-SN,,0.01,19.0,WeatherDisplay:10.37,2013-02-03 13:49:00,
2013-02-03 08:54:00,17.0,14.8,29.96,West,273,1.2,3.5,91,0.00,-SN,,0.01,19.0,WeatherDisplay:10.37,2013-02-03 13:54:00,
2013-02-03 08:59:00,17.1,14.9,29.97,West,265,3.0,5.0,91,0.00,-SN,,0.01,18.0,WeatherDisplay:10.37,2013-02-03 13:59:00,
2013-02-03 09:04:00,17.1,14.9,29.96,WNW,290,4.0,5.8,91,0.00,OVC,,0.01,18.0,WeatherDisplay:10.37,2013-02-03 14:04:00,
2013-02-03 09:09:00,17.2,15.0,29.96,WNW,290,1.2,3.5,91,0.00,OVC,,0.01,16.0,WeatherDisplay:10.37,2013-02-03 14:09:00,
2013-02-03 09:14:00,17.2,15.0,29.96,WNW,284,2.8,3.5,91,0.00,OVC,,0.01,18.0,WeatherDisplay:10.37,2013-02-03 14:14:00,
2013-02-03 09:19:00,17.3,15.1,29.96,WNW,289,2.2,3.5,91,0.00,OVC,,0.01,21.0,WeatherDisplay:10.37,2013-02-03 14:19:00,
2013-02-03 09:24:00,17.4,15.2,29.96,West,261,2.6,3.5,91,0.00,OVC,,0.01,25.0,WeatherDisplay:10.37,2013-02-03 14:24:00,
2013-02-03 09:29:00,17.5,15.3,29.96,West,274,1.3,2.3,91,0.00,OVC,,0.01,30.0,WeatherDisplay:10.37,2013-02-03 14:29:00,
2013-02-03 09:34:00,17.6,15.4,29.96,WNW,289,3.3,4.6,91,0.00,OVC,,0.01,30.0,WeatherDisplay:10.37,2013-02-03 14:34:00,
2013-02-03 09:39:00,17.7,15.5,29.95,WNW,288,2.4,3.5,91,0.00,OVC,,0.01,37.0,WeatherDisplay:10.37,2013-02-03 14:39:00,
2013-02-03 09:44:00,17.9,15.7,29.95,WSW,253,1.6,4.0,91,0.00,OVC,,0.01,40.0,WeatherDisplay:10.37,2013-02-03 14:44:00,
2013-02-03 09:49:00,18.1,15.9,29.96,West,270,2.6,3.5,91,0.00,OVC,,0.01,25.0,WeatherDisplay:10.37,2013-02-03 14:49:00,
2013-02-03 09:54:00,18.1,15.7,29.95,West,263,2.4,6.0,90,0.00,OVC,,0.01,32.0,WeatherDisplay:10.37,2013-02-03 14:54:00,
2013-02-03 09:59:00,18.1,15.7,29.95,West,269,3.8,5.8,90,0.00,OVC,,0.01,33.0,WeatherDisplay:10.37,2013-02-03 14:59:00,
2013-02-03 10:04:00,18.1,15.7,29.95,WSW,247,2.2,3.5,90,0.00,OVC,,0.01,39.0,WeatherDisplay:10.37,2013-02-03 15:04:00,
2013-02-03 10:09:00,18.3,15.9,29.95,WSW,242,2.7,3.5,90,0.00,OVC,,0.01,49.0,WeatherDisplay:10.37,2013-02-03 15:09:00,
2013-02-03 10:14:00,18.4,16.0,29.95,West,271,4.0,4.6,90,0.00,OVC,,0.01,53.0,WeatherDisplay:10.37,2013-02-03 15:14:00,
2013-02-03 10:19:00,18.6,15.9,29.95,SW,236,5.8,6.9,89,0.00,OVC,,0.01,63.0,WeatherDisplay:10.37,2013-02-03 15:19:00,
2013-02-03 10:24:00,18.8,16.1,29.96,NW,316,3.0,5.0,89,0.00,OVC,,0.01,90.0,WeatherDisplay:10.37,2013-02-03 15:24:00,
2013-02-03 10:29:00,19.0,16.3,29.95,WSW,254,4.5,6.9,89,0.00,OVC,,0.01,95.0,WeatherDisplay:10.37,2013-02-03 15:29:00,
2013-02-03 10:34:00,19.3,16.3,29.95,WNW,284,3.1,4.6,88,0.00,OVC,,0.01,83.0,WeatherDisplay:10.37,2013-02-03 15:34:00,
2013-02-03 10:39:00,19.3,16.3,29.95,West,281,3.7,4.6,88,0.00,OVC,,0.01,93.0,WeatherDisplay:10.37,2013-02-03 15:39:00,
2013-02-03 10:44:00,19.4,16.4,29.95,WSW,249,3.0,3.5,88,0.00,OVC,,0.01,90.0,WeatherDisplay:10.37,2013-02-03 15:44:00,
2013-02-03 10:49:00,19.8,16.8,29.96,WNW,288,3.1,3.5,88,0.00,OVC,,0.01,90.0,WeatherDisplay:10.37,2013-02-03 15:49:00,
2013-02-03 10:54:00,20.0,16.8,29.96,West,272,2.9,4.6,87,0.00,OVC,,0.01,86.0,WeatherDisplay:10.37,2013-02-03 15:54:00,
2013-02-03 10:59:00,20.0,16.8,29.96,WSW,245,4.0,6.9,87,0.00,OVC,,0.01,72.0,WeatherDisplay:10.37,2013-02-03 15:59:00,
2013-02-03 11:04:00,20.1,16.3,29.96,WSW,254,5.7,8.1,85,0.00,-SN,,0.01,81.0,WeatherDisplay:10.37,2013-02-03 16:04:00,
2013-02-03 11:09:00,20.3,16.5,29.96,West,276,4.9,5.8,85,0.00,-SN,,0.01,79.0,WeatherDisplay:10.37,2013-02-03 16:09:00,
2013-02-03 11:14:00,20.2,16.1,29.96,West,269,4.3,5.8,84,0.00,-SN,,0.01,84.0,WeatherDisplay:10.37,2013-02-03 16:14:00,
2013-02-03 11:19:00,20.2,16.4,29.96,West,274,3.1,4.0,85,0.00,-SN,,0.01,95.0,WeatherDisplay:10.37,2013-02-03 16:19:00,
2013-02-03 11:24:00,20.2,16.4,29.96,WSW,252,3.7,8.1,85,0.00,-SN,,0.01,120.0,WeatherDisplay:10.37,2013-02-03 16:24:00,
2013-02-03 11:29:00,20.4,16.6,29.96,West,280,5.3,8.1,85,0.00,-SN,,0.01,141.0,WeatherDisplay:10.37,2013-02-03 16:29:00,
2013-02-03 11:34:00,20.6,16.3,29.96,WNW,294,3.3,4.6,83,0.00,-SN,,0.01,132.0,WeatherDisplay:10.37,2013-02-03 16:34:00,
2013-02-03 11:39:00,21.1,16.2,29.95,WNW,296,4.3,5.8,81,0.00,-SN,,0.01,155.0,WeatherDisplay:10.37,2013-02-03 16:39:00,
2013-02-03 11:44:00,21.2,16.3,29.95,West,272,2.9,5.0,81,0.00,-SN,,0.01,109.0,WeatherDisplay:10.37,2013-02-03 16:44:00,
2013-02-03 11:49:00,21.0,15.8,29.95,WNW,295,6.0,8.1,80,0.00,-SN,,0.01,109.0,WeatherDisplay:10.37,2013-02-03 16:49:00,
2013-02-03 11:54:00,21.0,16.1,29.95,NW,305,3.0,4.6,81,0.00,-SN,,0.01,109.0,WeatherDisplay:10.37,2013-02-03 16:54:00,
2013-02-03 11:59:00,21.1,16.2,29.95,WNW,294,4.5,6.9,81,0.00,-SN,,0.01,153.0,WeatherDisplay:10.37,2013-02-03 16:59:00,
2013-02-03 12:04:00,21.3,16.4,29.94,WNW,283,3.8,5.8,81,0.00,-SN,,0.01,88.0,WeatherDisplay:10.37,2013-02-03 17:04:00,
2013-02-03 12:09:00,21.1,16.5,29.94,WNW,290,4.9,5.8,82,0.00,-SN,,0.01,74.0,WeatherDisplay:10.37,2013-02-03 17:09:00,
2013-02-03 12:14:00,20.8,16.2,29.94,WNW,300,5.3,6.9,82,0.00,-SN,,0.01,139.0,WeatherDisplay:10.37,2013-02-03 17:14:00,
2013-02-03 12:19:00,20.6,15.1,29.94,WNW,286,5.3,8.1,79,0.00,-SN,,0.01,132.0,WeatherDisplay:10.37,2013-02-03 17:19:00,
2013-02-03 12:24:00,20.3,15.4,29.93,West,281,3.2,5.0,81,0.00,-SN,,0.01,67.0,WeatherDisplay:10.37,2013-02-03 17:24:00,
2013-02-03 12:29:00,20.5,15.0,29.93,WNW,286,5.8,9.2,79,0.00,-SN,,0.01,63.0,WeatherDisplay:10.37,2013-02-03 17:29:00,
2013-02-03 12:34:00,20.6,15.1,29.93,West,280,4.5,6.9,79,0.00,-SN,,0.01,58.0,WeatherDisplay:10.37,2013-02-03 17:34:00,
2013-02-03 12:39:00,20.5,15.0,29.93,WNW,286,3.7,7.0,79,0.00,-SN,,0.01,167.0,WeatherDisplay:10.37,2013-02-03 17:39:00,
2013-02-03 12:44:00,20.5,15.3,29.93,WNW,288,6.0,8.1,80,0.00,-SN,,0.01,77.0,WeatherDisplay:10.37,2013-02-03 17:44:00,
2013-02-03 12:49:00,20.3,14.8,29.93,WNW,301,4.6,6.9,79,0.00,-SN,,0.01,165.0,WeatherDisplay:10.37,2013-02-03 17:49:00,
2013-02-03 12:54:00,20.7,15.2,29.93,WNW,286,4.5,5.8,79,0.00,-SN,,0.01,197.0,WeatherDisplay:10.37,2013-02-03 17:54:00,
2013-02-03 12:59:00,20.8,15.0,29.93,NW,324,6.5,9.2,78,0.00,-SN,,0.01,297.0,WeatherDisplay:10.37,2013-02-03 17:59:00,
2013-02-03 13:04:00,21.2,15.4,29.93,NW,320,7.1,11.5,78,0.00,-SN,,0.01,258.0,WeatherDisplay:10.37,2013-02-03 18:04:00,
2013-02-03 13:09:00,21.1,15.6,29.93,NW,304,6.3,11.5,79,0.00,-SN,,0.01,188.0,WeatherDisplay:10.37,2013-02-03 18:09:00,
2013-02-03 13:14:00,21.3,15.5,29.93,WNW,292,4.5,8.1,78,0.00,-SN,,0.01,301.0,WeatherDisplay:10.37,2013-02-03 18:14:00,
2013-02-03 13:19:00,21.7,15.6,29.93,NW,320,4.1,8.0,77,0.00,-SN,,0.01,260.0,WeatherDisplay:10.37,2013-02-03 18:19:00,
2013-02-03 13:24:00,21.5,15.4,29.93,WNW,300,5.9,11.0,77,0.00,-SN,,0.01,192.0,WeatherDisplay:10.37,2013-02-03 18:24:00,
2013-02-03 13:29:00,21.3,15.2,29.93,WNW,284,6.8,9.2,77,0.00,-SN,,0.01,255.0,WeatherDisplay:10.37,2013-02-03 18:29:00,
2013-02-03 13:34:00,21.2,15.4,29.93,NW,315,7.1,12.0,78,0.00,-SN,,0.01,288.0,WeatherDisplay:10.37,2013-02-03 18:34:00,
2013-02-03 13:39:00,21.3,15.5,29.93,WNW,294,4.5,8.1,78,0.00,-SN,,0.01,258.0,WeatherDisplay:10.37,2013-02-03 18:39:00,
2013-02-03 13:44:00,21.5,15.4,29.93,West,259,5.9,10.4,77,0.00,-SN,,0.01,218.0,WeatherDisplay:10.37,2013-02-03 18:44:00,
2013-02-03 13:49:00,21.7,15.6,29.93,WNW,296,6.6,10.4,77,0.00,-SN,,0.01,515.0,WeatherDisplay:10.37,2013-02-03 18:49:00,
2013-02-03 13:54:00,22.3,16.2,29.93,WNW,290,2.2,6.0,77,0.00,-SN,,0.01,517.0,WeatherDisplay:10.37,2013-02-03 18:54:00,
2013-02-03 13:59:00,22.6,15.9,29.93,WNW,303,6.5,7.0,75,0.00,-SN,,0.01,357.0,WeatherDisplay:10.37,2013-02-03 18:59:00,
2013-02-03 14:04:00,22.4,15.1,29.93,WNW,300,8.4,11.5,73,0.00,OVC,,0.01,200.0,WeatherDisplay:10.37,2013-02-03 19:04:00,
2013-02-03 14:09:00,22.0,15.0,29.93,West,281,7.6,11.5,74,0.00,OVC,,0.01,229.0,WeatherDisplay:10.37,2013-02-03 19:09:00,
2013-02-03 14:14:00,21.9,14.9,29.93,WSW,252,5.0,8.1,74,0.00,OVC,,0.01,274.0,WeatherDisplay:10.37,2013-02-03 19:14:00,
2013-02-03 14:19:00,22.0,15.0,29.93,WNW,288,5.4,8.1,74,0.00,OVC,,0.01,265.0,WeatherDisplay:10.37,2013-02-03 19:19:00,
2013-02-03 14:24:00,22.3,15.0,29.93,NW,310,4.7,8.1,73,0.00,OVC,,0.01,396.0,WeatherDisplay:10.37,2013-02-03 19:24:00,
2013-02-03 14:29:00,22.7,15.3,29.93,WNW,283,7.2,9.2,73,0.00,OVC,,0.01,394.0,WeatherDisplay:10.37,2013-02-03 19:29:00,
2013-02-03 14:34:00,22.4,15.1,29.93,WNW,291,5.0,8.1,73,0.00,OVC,,0.01,225.0,WeatherDisplay:10.37,2013-02-03 19:34:00,
2013-02-03 14:39:00,21.9,14.3,29.94,WSW,257,5.7,10.4,72,0.00,OVC,,0.01,172.0,WeatherDisplay:10.37,2013-02-03 19:39:00,
2013-02-03 14:44:00,21.3,14.0,29.94,West,261,4.8,8.1,73,0.00,OVC,,0.01,128.0,WeatherDisplay:10.37,2013-02-03 19:44:00,
2013-02-03 14:49:00,21.0,13.7,29.93,WSW,258,6.0,8.1,73,0.00,OVC,,0.01,121.0,WeatherDisplay:10.37,2013-02-03 19:49:00,
2013-02-03 14:54:00,21.0,13.7,29.93,WNW,302,7.5,10.4,73,0.00,OVC,,0.01,113.0,WeatherDisplay:10.37,2013-02-03 19:54:00,
2013-02-03 14:59:00,21.1,14.1,29.94,WNW,300,3.9,5.8,74,0.00,OVC,,0.01,146.0,WeatherDisplay:10.37,2013-02-03 19:59:00,
2013-02-03 15:04:00,21.2,14.2,29.94,WNW,303,3.0,6.0,74,0.00,BKN,,0.01,148.0,WeatherDisplay:10.37,2013-02-03 20:04:00,
2013-02-03 15:09:00,21.1,13.8,29.94,WNW,295,5.7,6.9,73,0.00,BKN,,0.01,102.0,WeatherDisplay:10.37,2013-02-03 20:09:00,
2013-02-03 15:14:00,21.0,13.7,29.94,West,276,3.9,8.1,73,0.00,BKN,,0.01,118.0,WeatherDisplay:10.37,2013-02-03 20:14:00,
2013-02-03 15:19:00,21.0,13.7,29.94,WSW,248,6.5,11.5,73,0.00,BKN,,0.01,121.0,WeatherDisplay:10.37,2013-02-03 20:19:00,
2013-02-03 15:24:00,21.0,13.7,29.94,West,278,7.8,11.5,73,0.00,BKN,,0.01,88.0,WeatherDisplay:10.37,2013-02-03 20:24:00,
2013-02-03 15:29:00,20.9,13.9,29.94,West,275,5.0,8.1,74,0.00,BKN,,0.01,83.0,WeatherDisplay:10.37,2013-02-03 20:29:00,
2013-02-03 15:34:00,20.9,13.6,29.94,WSW,247,6.5,9.2,73,0.00,BKN,,0.01,102.0,WeatherDisplay:10.37,2013-02-03 20:34:00,
2013-02-03 15:39:00,20.9,14.2,29.95,West,271,6.5,9.0,75,0.00,BKN,,0.01,84.0,WeatherDisplay:10.37,2013-02-03 20:39:00,
2013-02-03 15:44:00,20.9,13.9,29.95,WNW,299,7.7,10.4,74,0.00,BKN,,0.01,100.0,WeatherDisplay:10.37,2013-02-03 20:44:00,
2013-02-03 15:49:00,20.9,13.9,29.95,West,272,8.5,11.5,74,0.00,BKN,,0.01,127.0,WeatherDisplay:10.37,2013-02-03 20:49:00,
2013-02-03 15:54:00,20.8,13.8,29.96,WNW,289,7.8,14.0,74,0.00,BKN,,0.01,97.0,WeatherDisplay:10.37,2013-02-03 20:54:00,
2013-02-03 15:59:00,20.6,13.3,29.95,WSW,258,6.8,11.5,73,0.00,BKN,,0.01,125.0,WeatherDisplay:10.37,2013-02-03 20:59:00,
2013-02-03 16:04:00,20.5,12.9,29.95,WNW,284,5.5,8.1,72,0.00,OVC,,0.01,98.0,WeatherDisplay:10.37,2013-02-03 21:04:00,
2013-02-03 16:09:00,20.5,13.2,29.96,SW,235,6.5,10.4,73,0.00,OVC,,0.01,88.0,WeatherDisplay:10.37,2013-02-03 21:09:00,
2013-02-03 16:14:00,20.5,13.5,29.96,WSW,237,6.0,11.5,74,0.00,OVC,,0.01,70.0,WeatherDisplay:10.37,2013-02-03 21:14:00,
2013-02-03 16:19:00,20.4,13.7,29.96,WSW,255,4.0,6.9,75,0.00,OVC,,0.01,70.0,WeatherDisplay:10.37,2013-02-03 21:19:00,
2013-02-03 16:24:00,20.4,13.7,29.96,WSW,253,6.1,10.4,75,0.00,OVC,,0.01,67.0,WeatherDisplay:10.37,2013-02-03 21:24:00,
2013-02-03 16:29:00,20.3,13.0,29.97,WSW,256,7.0,12.7,73,0.00,OVC,,0.01,62.0,WeatherDisplay:10.37,2013-02-03 21:29:00,
2013-02-03 16:34:00,20.1,13.1,29.97,WSW,252,9.8,13.0,74,0.00,OVC,,0.01,53.0,WeatherDisplay:10.37,2013-02-03 21:34:00,
2013-02-03 16:39:00,20.0,13.3,29.97,WNW,294,9.8,15.0,75,0.00,OVC,,0.01,44.0,WeatherDisplay:10.37,2013-02-03 21:39:00,
2013-02-03 16:44:00,19.9,13.6,29.97,WSW,242,8.8,15.0,76,0.00,OVC,,0.01,37.0,WeatherDisplay:10.37,2013-02-03 21:44:00,
2013-02-03 16:49:00,19.8,13.5,29.97,WNW,298,9.0,11.5,76,0.00,OVC,,0.01,35.0,WeatherDisplay:10.37,2013-02-03 21:49:00,
2013-02-03 16:54:00,19.7,14.0,29.97,NW,322,6.2,9.2,78,0.00,OVC,,0.01,32.0,WeatherDisplay:10.37,2013-02-03 21:54:00,
2013-02-03 16:59:00,19.6,13.9,29.97,WNW,294,8.2,11.5,78,0.00,OVC,,0.01,28.0,WeatherDisplay:10.37,2013-02-03 21:59:00,
2013-02-03 17:04:00,19.5,14.0,29.98,WSW,258,8.5,14.0,79,0.00,-SN,,0.01,25.0,WeatherDisplay:10.37,2013-02-03 22:04:00,
2013-02-03 17:09:00,19.4,13.9,29.98,West,259,7.0,9.2,79,0.00,-SN,,0.01,21.0,WeatherDisplay:10.37,2013-02-03 22:09:00,
2013-02-03 17:14:00,19.3,14.1,29.97,West,265,6.0,8.1,80,0.00,-SN,,0.01,18.0,WeatherDisplay:10.37,2013-02-03 22:14:00,
2013-02-03 17:19:00,19.2,14.0,29.98,WSW,254,9.3,17.3,80,0.00,-SN,,0.01,14.0,WeatherDisplay:10.37,2013-02-03 22:19:00,
2013-02-03 17:24:00,19.1,14.2,29.97,WSW,247,7.5,9.2,81,0.00,-SN,,0.01,12.0,WeatherDisplay:10.37,2013-02-03 22:24:00,
2013-02-03 17:29:00,19.0,14.1,29.97,WSW,248,6.3,9.2,81,0.00,-SN,,0.01,11.0,WeatherDisplay:10.37,2013-02-03 22:29:00,
2013-02-03 17:34:00,18.9,14.0,29.97,WNW,282,6.0,10.4,81,0.00,-SN,,0.01,9.0,WeatherDisplay:10.37,2013-02-03 22:34:00,
2013-02-03 17:39:00,18.9,14.3,29.97,West,263,6.6,11.5,82,0.00,-SN,,0.01,5.0,WeatherDisplay:10.37,2013-02-03 22:39:00,
2013-02-03 17:44:00,18.8,14.2,29.98,WSW,249,3.7,8.0,82,0.00,-SN,,0.01,0.0,WeatherDisplay:10.37,2013-02-03 22:44:00,
2013-02-03 17:49:00,18.8,14.5,29.98,WSW,252,7.6,11.5,83,0.00,-SN,,0.01,0.0,WeatherDisplay:10.37,2013-02-03 22:49:00,
2013-02-03 17:54:00,18.7,14.4,29.98,West,260,4.0,5.8,83,0.00,-SN,,0.01,0.0,WeatherDisplay:10.37,2013-02-03 22:54:00,
2013-02-03 17:59:00,18.6,14.3,29.98,West,268,7.9,12.7,83,0.00,-SN,,0.01,0.0,WeatherDisplay:10.37,2013-02-03 22:59:00,
2013-02-03 18:04:00,18.6,14.3,29.99,WSW,250,4.4,5.8,83,0.00,-SN,,0.01,0.0,WeatherDisplay:10.37,2013-02-03 23:04:00,
2013-02-03 18:09:00,18.6,14.3,29.99,West,264,6.8,10.4,83,0.00,-SN,,0.01,0.0,WeatherDisplay:10.37,2013-02-03 23:09:00,
2013-02-03 18:14:00,18.6,14.6,29.99,West,280,6.3,11.5,84,0.00,-SN,,0.01,0.0,WeatherDisplay:10.37,2013-02-03 23:14:00,
2013-02-03 18:19:00,18.6,14.6,29.99,SW,236,6.2,8.1,84,0.00,-SN,,0.01,0.0,WeatherDisplay:10.37,2013-02-03 23:19:00,
2013-02-03 18:24:00,18.6,14.6,30.00,WSW,245,6.7,11.0,84,0.00,-SN,,0.01,0.0,WeatherDisplay:10.37,2013-02-03 23:24:00,
2013-02-03 18:29:00,18.6,14.8,30.00,WSW,251,9.4,12.7,85,0.00,-SN,,0.01,0.0,WeatherDisplay:10.37,2013-02-03 23:29:00,
2013-02-03 18:34:00,18.6,14.8,30.00,West,271,10.1,15.0,85,0.00,-SN,,0.01,0.0,WeatherDisplay:10.37,2013-02-03 23:34:00,
2013-02-03 18:39:00,18.6,15.1,30.00,WSW,254,5.4,8.0,86,0.00,-SN,,0.01,0.0,WeatherDisplay:10.37,2013-02-03 23:39:00,
2013-02-03 18:44:00,18.6,15.1,30.00,WSW,256,6.9,12.0,86,0.00,-SN,,0.01,0.0,WeatherDisplay:10.37,2013-02-03 23:44:00,
2013-02-03 18:49:00,18.6,14.8,30.01,WSW,241,5.8,8.1,85,0.00,-SN,,0.01,0.0,WeatherDisplay:10.37,2013-02-03 23:49:00,
2013-02-03 18:54:00,18.6,14.8,30.01,West,263,4.2,5.8,85,0.00,-SN,,0.01,0.0,WeatherDisplay:10.37,2013-02-03 23:54:00,
2013-02-03 18:59:00,18.5,14.5,30.01,West,259,8.4,13.8,84,0.00,-SN,,0.01,0.0,WeatherDisplay:10.37,2013-02-03 23:59:00,
2013-02-03 19:04:00,18.5,14.5,30.01,WNW,286,9.7,14.0,84,0.00,-SN,,0.01,0.0,WeatherDisplay:10.37,2013-02-04 00:04:00,
2013-02-03 19:09:00,18.4,14.4,30.01,WSW,240,9.7,18.4,84,0.00,-SN,,0.01,0.0,WeatherDisplay:10.37,2013-02-04 00:09:00,
2013-02-03 19:14:00,18.4,14.1,30.02,WNW,301,6.2,12.7,83,0.00,-SN,,0.01,0.0,WeatherDisplay:10.37,2013-02-04 00:14:00,
2013-02-03 19:19:00,18.3,13.7,30.02,WSW,247,8.5,15.0,82,0.00,-SN,,0.01,0.0,WeatherDisplay:10.37,2013-02-04 00:19:00,
2013-02-03 19:24:00,18.3,13.7,30.02,West,273,7.4,11.5,82,0.00,-SN,,0.01,0.0,WeatherDisplay:10.37,2013-02-04 00:24:00,
2013-02-03 19:29:00,18.2,13.6,30.02,West,271,9.4,13.8,82,0.00,-SN,,0.01,0.0,WeatherDisplay:10.37,2013-02-04 00:29:00,
2013-02-03 19:34:00,18.2,13.6,30.02,West,278,12.4,13.8,82,0.00,-SN,,0.01,0.0,WeatherDisplay:10.37,2013-02-04 00:34:00,
2013-02-03 19:39:00,18.2,13.3,30.02,West,263,6.7,11.5,81,0.00,-SN,,0.01,0.0,WeatherDisplay:10.37,2013-02-04 00:39:00,
2013-02-03 19:44:00,18.2,13.3,30.02,West,271,7.6,15.0,81,0.00,-SN,,0.01,0.0,WeatherDisplay:10.37,2013-02-04 00:44:00,
2013-02-03 19:49:00,18.2,13.3,30.02,WSW,252,11.5,19.6,81,0.00,-SN,,0.01,0.0,WeatherDisplay:10.37,2013-02-04 00:49:00,
2013-02-03 19:54:00,18.2,13.3,30.02,West,267,9.4,12.7,81,0.00,-SN,,0.01,0.0,WeatherDisplay:10.37,2013-02-04 00:54:00,
2013-02-03 19:59:00,18.1,13.3,30.02,SW,233,8.7,11.5,81,0.00,-SN,,0.01,0.0,WeatherDisplay:10.37,2013-02-04 00:59:00,
2013-02-03 20:04:00,18.1,13.3,30.02,West,266,8.5,11.5,81,0.00,-SN,,0.01,0.0,WeatherDisplay:10.37,2013-02-04 01:04:00,
2013-02-03 20:09:00,18.1,13.3,30.03,WSW,257,6.3,11.5,81,0.00,-SN,,0.01,0.0,WeatherDisplay:10.37,2013-02-04 01:09:00,
2013-02-03 20:14:00,18.1,13.3,30.03,West,263,8.1,9.2,81,0.00,-SN,,0.01,0.0,WeatherDisplay:10.37,2013-02-04 01:14:00,
2013-02-03 20:19:00,18.0,13.2,30.03,West,259,8.8,17.3,81,0.00,-SN,,0.01,0.0,WeatherDisplay:10.37,2013-02-04 01:19:00,
2013-02-03 20:24:00,18.0,13.2,30.03,West,263,7.3,13.8,81,0.00,-SN,,0.01,0.0,WeatherDisplay:10.37,2013-02-04 01:24:00,
2013-02-03 20:29:00,17.9,13.1,30.03,West,259,12.4,20.7,81,0.00,-SN,,0.01,0.0,WeatherDisplay:10.37,2013-02-04 01:29:00,
2013-02-03 20:34:00,17.9,13.1,30.03,West,262,7.0,11.5,81,0.00,-SN,,0.01,0.0,WeatherDisplay:10.37,2013-02-04 01:34:00,
2013-02-03 20:39:00,17.8,13.0,30.03,WSW,246,9.4,16.1,81,0.00,-SN,,0.01,0.0,WeatherDisplay:10.37,2013-02-04 01:39:00,
2013-02-03 20:44:00,17.9,13.1,30.03,West,275,9.8,20.7,81,0.00,-SN,,0.01,0.0,WeatherDisplay:10.37,2013-02-04 01:44:00,
2013-02-03 20:49:00,17.9,13.1,30.03,West,271,8.8,11.5,81,0.00,-SN,,0.01,0.0,WeatherDisplay:10.37,2013-02-04 01:49:00,
2013-02-03 20:54:00,17.9,13.1,30.03,West,276,7.8,12.7,81,0.00,-SN,,0.01,0.0,WeatherDisplay:10.37,2013-02-04 01:54:00,
2013-02-03 20:59:00,17.8,13.0,30.03,WNW,292,7.1,15.0,81,0.00,-SN,,0.01,0.0,WeatherDisplay:10.37,2013-02-04 01:59:00,
2013-02-03 21:04:00,17.8,13.0,30.03,WSW,250,9.0,11.5,81,0.00,BKN,,0.01,0.0,WeatherDisplay:10.37,2013-02-04 02:04:00,
2013-02-03 21:09:00,17.7,12.9,30.04,NW,309,7.3,10.0,81,0.00,BKN,,0.01,0.0,WeatherDisplay:10.37,2013-02-04 02:09:00,
2013-02-03 21:14:00,17.5,12.7,30.04,WSW,244,7.9,11.5,81,0.00,BKN,,0.01,0.0,WeatherDisplay:10.37,2013-02-04 02:14:00,
2013-02-03 21:19:00,17.5,12.7,30.04,WNW,295,6.7,11.5,81,0.00,BKN,,0.01,0.0,WeatherDisplay:10.37,2013-02-04 02:19:00,
2013-02-03 21:24:00,17.3,12.5,30.04,WSW,251,6.7,12.7,81,0.00,BKN,,0.01,0.0,WeatherDisplay:10.37,2013-02-04 02:24:00,
2013-02-03 21:29:00,17.3,12.5,30.04,West,267,9.1,12.7,81,0.00,BKN,,0.01,0.0,WeatherDisplay:10.37,2013-02-04 02:29:00,
2013-02-03 21:34:00,17.3,12.7,30.04,West,274,8.7,11.5,82,0.00,BKN,,0.01,0.0,WeatherDisplay:10.37,2013-02-04 02:34:00,
2013-02-03 21:39:00,17.3,12.7,30.05,West,269,8.2,12.7,82,0.00,BKN,,0.01,0.0,WeatherDisplay:10.37,2013-02-04 02:39:00,
2013-02-03 21:45:00,17.3,12.7,30.05,West,265,7.0,13.0,82,0.00,BKN,,0.01,0.0,WeatherDisplay:10.37,2013-02-04 02:45:00,
2013-02-03 21:50:00,17.2,12.7,30.05,West,270,7.0,13.0,82,0.00,BKN,,0.01,0.0,WeatherDisplay:10.37,2013-02-04 02:50:00,
2013-02-03 21:55:00,17.2,12.7,30.06,West,271,9.0,17.0,82,0.00,BKN,,0.01,0.0,WeatherDisplay:10.37,2013-02-04 02:55:00,
2013-02-03 22:00:00,17.4,13.1,30.06,West,273,7.1,11.5,83,0.00,BKN,,0.01,0.0,WeatherDisplay:10.37,2013-02-04 03:00:00,
2013-02-03 22:05:00,17.5,13.2,30.06,West,270,6.0,12.0,83,0.00,-SN,,0.01,0.0,WeatherDisplay:10.37,2013-02-04 03:05:00,
2013-02-03 22:10:00,17.6,13.3,30.06,WNW,303,6.4,13.8,83,0.00,-SN,,0.01,0.0,WeatherDisplay:10.37,2013-02-04 03:10:00,
2013-02-03 22:15:00,17.7,13.4,30.06,West,268,6.0,12.0,83,0.00,-SN,,0.01,0.0,WeatherDisplay:10.37,2013-02-04 03:15:00,
2013-02-03 22:20:00,17.9,13.6,30.06,WSW,257,8.3,12.0,83,0.00,-SN,,0.01,0.0,WeatherDisplay:10.37,2013-02-04 03:20:00,
2013-02-03 22:25:00,17.9,13.6,30.06,West,262,8.0,12.0,83,0.00,-SN,,0.01,0.0,WeatherDisplay:10.37,2013-02-04 03:25:00,
2013-02-03 22:30:00,18.0,13.7,30.06,West,268,5.0,9.2,83,0.00,-SN,,0.01,0.0,WeatherDisplay:10.37,2013-02-04 03:30:00,
2013-02-03 22:35:00,18.0,13.7,30.06,West,261,6.0,14.0,83,0.00,-SN,,0.01,0.0,WeatherDisplay:10.37,2013-02-04 03:35:00,
2013-02-03 22:40:00,18.1,13.5,30.06,West,260,7.2,13.8,82,0.00,-SN,,0.01,0.0,WeatherDisplay:10.37,2013-02-04 03:40:00,
2013-02-03 22:45:00,18.2,13.6,30.06,West,261,7.0,14.0,82,0.00,-SN,,0.01,0.0,WeatherDisplay:10.37,2013-02-04 03:45:00,
2013-02-03 22:50:00,18.2,13.6,30.06,West,273,8.4,12.0,82,0.00,-SN,,0.01,0.0,WeatherDisplay:10.37,2013-02-04 03:50:00,
2013-02-03 22:55:00,18.2,13.6,30.06,West,275,5.4,11.5,82,0.00,-SN,,0.01,0.0,WeatherDisplay:10.37,2013-02-04 03:55:00,
2013-02-03 23:00:00,18.3,13.7,30.06,West,271,8.0,14.0,82,0.00,-SN,,0.01,0.0,WeatherDisplay:10.37,2013-02-04 04:00:00,
2013-02-03 23:05:00,18.3,13.7,30.07,West,269,4.9,6.9,82,0.00,-SN,,0.01,0.0,WeatherDisplay:10.37,2013-02-04 04:05:00,
2013-02-03 23:10:00,18.4,13.8,30.07,WSW,251,7.3,10.4,82,0.00,-SN,,0.01,0.0,WeatherDisplay:10.37,2013-02-04 04:10:00,
2013-02-03 23:15:00,18.4,13.8,30.07,West,265,5.9,8.1,82,0.00,-SN,,0.01,0.0,WeatherDisplay:10.37,2013-02-04 04:15:00,
2013-02-03 23:20:00,18.4,13.8,30.07,West,274,4.8,10.4,82,0.00,-SN,,0.01,0.0,WeatherDisplay:10.37,2013-02-04 04:20:00,
2013-02-03 23:25:00,18.4,14.1,30.07,West,261,9.0,14.0,83,0.00,-SN,,0.01,0.0,WeatherDisplay:10.37,2013-02-04 04:25:00,
2013-02-03 23:30:00,18.4,14.1,30.07,WNW,291,3.5,6.9,83,0.00,-SN,,0.01,0.0,WeatherDisplay:10.37,2013-02-04 04:30:00,
2013-02-03 23:35:00,18.4,14.4,30.07,West,264,6.0,12.0,84,0.00,-SN,,0.01,0.0,WeatherDisplay:10.37,2013-02-04 04:35:00,
2013-02-03 23:40:00,18.3,14.5,30.07,WSW,242,8.0,10.4,85,0.00,-SN,,0.01,0.0,WeatherDisplay:10.37,2013-02-04 04:40:00,
2013-02-03 23:45:00,18.3,14.8,30.08,West,270,6.0,12.0,86,0.00,-SN,,0.01,0.0,WeatherDisplay:10.37,2013-02-04 04:45:00,
2013-02-03 23:50:00,18.2,15.0,30.08,WNW,302,5.1,10.0,87,0.00,-SN,,0.01,0.0,WeatherDisplay:10.37,2013-02-04 04:50:00,
2013-02-03 23:55:00,18.2,15.2,30.08,West,277,5.0,10.0,88,0.00,-SN,,0.01,0.0,WeatherDisplay:10.37,2013-02-04 04:55:00,